Change the Weather History Date:

Saturday, December 22, 2012

  Actual Average Record
Temperature  
Mean Temperature 37 °F -  
Max Temperature 39 °F 40 °F 68 °F (2013)
Min Temperature 35 °F 22 °F 1 °F (1955)
Degree Days  
Heating Degree Days 28    
Moisture  
Dew Point 23 °F    
Average Humidity 58    
Maximum Humidity 89    
Minimum Humidity 41    
Precipitation  
Precipitation 0.00 in - - ()
Sea Level Pressure  
Sea Level Pressure 29.60 in    
Wind  
Wind Speed 9 mph (WNW)    
Max Wind Speed 22 mph    
Max Gust Speed 33 mph    
Visibility 10 miles    
Events Snow    
Averages and records for this station are not official NWS values.
T = Trace of Precipitation, MM = Missing Value Source: NWS Daily Summary

Daily Weather History Graph

Daily Weather History Graph

Search for Another Location

Airport or City:

Trip Planner

Search our weather history database for the weather conditions in past years. The results will help you decide how hot, cold, wet, or windy it might be!

Date:

Astronomy

Dec. 22, 2012 Rise Set
Actual Time 7:19 AM EST 4:35 PM EST
Civil Twilight 6:48 AM EST 5:06 PM EST
Nautical Twilight 6:14 AM EST 5:40 PM EST
Astronomical Twilight 5:40 AM EST 6:14 PM EST
Moon 12:52 PM EST (12/22) 2:01 AM EST (12/22)
Length of Visible Light 10h 17m
Length of Day
9h 15m
Waxing Gibbous, 73% of the Moon is Illuminated
Dec 22
Waxing Gibbous
Dec 28
Full
Jan 4
Last Quarter
Jan 11
New
Jan 18
First Quarter

Hourly Weather History & Observations

Time (EST) Temp. Windchill Dew Point Humidity Pressure Visibility Wind Dir Wind Speed Gust Speed Precip Events Conditions
12:20 AM 35.6 °F 29.9 °F 30.2 °F 81% 29.35 in 9.0 mi Variable 6.9 mph - 0.00 in Snow Light Snow
12:53 AM 35.1 °F 31.0 °F 32.0 °F 89% 29.36 in 9.0 mi Variable 4.6 mph - 0.00 in Snow Light Snow
1:53 AM 37.0 °F 31.6 °F 28.9 °F 73% 29.37 in 10.0 mi Variable 6.9 mph 17.3 mph 0.00 in   Overcast
2:53 AM 37.0 °F 31.0 °F 28.0 °F 70% 29.38 in 10.0 mi West 8.1 mph - N/A   Overcast
3:42 AM 37.4 °F 30.8 °F 28.4 °F 70% 29.39 in 10.0 mi West 9.2 mph - N/A   Overcast
3:53 AM 37.0 °F 31.6 °F 28.9 °F 73% 29.39 in 10.0 mi Variable 6.9 mph 20.7 mph N/A   Overcast
4:53 AM 37.0 °F 29.3 °F 28.0 °F 70% 29.42 in 10.0 mi West 11.5 mph 20.7 mph N/A   Overcast
5:53 AM 37.0 °F 29.8 °F 26.1 °F 65% 29.46 in 10.0 mi West 10.4 mph 18.4 mph N/A   Overcast
6:53 AM 37.0 °F 29.3 °F 23.0 °F 57% 29.49 in 10.0 mi West 11.5 mph 24.2 mph N/A   Partly Cloudy
7:53 AM 37.0 °F 32.4 °F 21.0 °F 52% 29.53 in 10.0 mi Variable 5.8 mph 18.4 mph N/A   Mostly Cloudy
8:53 AM 37.0 °F 28.9 °F 19.9 °F 50% 29.56 in 10.0 mi WNW 12.7 mph 24.2 mph N/A   Overcast
9:53 AM 37.9 °F 29.2 °F 21.0 °F 51% 29.60 in 10.0 mi WNW 15.0 mph 31.1 mph N/A   Overcast
10:53 AM 37.9 °F 30.5 °F 21.0 °F 51% 29.61 in 10.0 mi WNW 11.5 mph 29.9 mph N/A   Overcast
11:53 AM 37.9 °F 30.5 °F 23.0 °F 55% 29.62 in 10.0 mi WNW 11.5 mph 19.6 mph N/A   Overcast
12:53 PM 37.9 °F 29.6 °F 24.1 °F 57% 29.61 in 10.0 mi WNW 13.8 mph 29.9 mph N/A   Overcast
1:53 PM 39.0 °F 32.3 °F 23.0 °F 53% 29.63 in 10.0 mi West 10.4 mph 27.6 mph N/A   Overcast
2:53 PM 39.9 °F 32.1 °F 21.9 °F 49% 29.66 in 10.0 mi WNW 13.8 mph 29.9 mph N/A   Overcast
3:53 PM 39.9 °F 30.0 °F 18.0 °F 41% 29.69 in 10.0 mi NW 21.9 mph 33.4 mph N/A   Overcast
4:53 PM 39.0 °F 32.8 °F 19.0 °F 45% 29.73 in 10.0 mi WNW 9.2 mph 17.3 mph N/A   Mostly Cloudy
5:53 PM 39.0 °F 33.4 °F 19.9 °F 46% 29.76 in 10.0 mi WNW 8.1 mph 20.7 mph N/A   Mostly Cloudy
6:53 PM 37.9 °F 29.2 °F 19.9 °F 48% 29.78 in 10.0 mi WNW 15.0 mph 23.0 mph N/A   Partly Cloudy
7:53 PM 37.0 °F 31.0 °F 19.0 °F 48% 29.81 in 10.0 mi WNW 8.1 mph 17.3 mph N/A   Partly Cloudy
8:53 PM 37.0 °F 31.0 °F 19.0 °F 48% 29.83 in 10.0 mi WNW 8.1 mph - N/A   Mostly Cloudy
9:53 PM 37.0 °F 28.5 °F 19.0 °F 48% 29.83 in 10.0 mi WNW 13.8 mph 23.0 mph N/A   Overcast
10:53 PM 37.0 °F 31.6 °F 23.0 °F 57% 29.84 in 10.0 mi Variable 6.9 mph - N/A   Overcast
11:53 PM 36.0 °F 30.3 °F 23.0 °F 59% 29.85 in 10.0 mi West 6.9 mph - N/A   Mostly Cloudy